Location: Les Jeannots
(43.2262°N, 5.5774°E)
Time: 00:03:03
(UTC+00:00)

Cosmos 1340 - Pass Details

Date: 05 July 2020
Orbit: 502 x 505 km, 81.2° (Epoch: 11 August)

Event Time Altitude Azimuth Distance (km) Brightness Sun altitude
Exits shadow 23:34:15 59° 335° (NNW) 586 3.1 -24.1°
Drops below altitude 10° 23:37:29 10° 6° (N) 1,721 6.4 -24.1°
Sets 23:39:37 0° 8° (N) 2,610 7.6 -24.1°
